Weather History for Corning, AR

Change the Weather History Date:

Sunday, January 27, 2013

  Actual Average (KARG) Record (KARG)
Temperature  
Mean Temperature 46 °F -  
Max Temperature 57 °F 44 °F 66 °F (1999)
Min Temperature 35 °F 29 °F 17 °F (2003)
Degree Days  
Heating Degree Days 19    
Moisture  
Dew Point 41 °F    
Average Humidity 85    
Maximum Humidity 100    
Minimum Humidity 70    
Precipitation  
Precipitation 0.02 in - - ()
Sea Level Pressure  
Sea Level Pressure 30.18 in    
Wind  
Wind Speed 7 mph (ESE)    
Max Wind Speed 15 mph    
Max Gust Speed -    
Visibility 9 miles    
Events Rain    
Averages and records for this station are not official NWS values.
T = Trace of Precipitation, MM = Missing Value Source: NWS Daily Summary

Daily Weather History Graph

Daily Weather History Graph

Search for Another Location

Airport:

Trip Planner

Search our weather history database for the weather conditions in past years. The results will help you decide how hot, cold, wet, or windy it might be!

Date:

Astronomy

Jan. 27, 2013 Rise Set
Actual Time 7:07 AM CST 5:23 PM CST
Civil Twilight 6:40 AM CST 5:51 PM CST
Nautical Twilight 6:09 AM CST 6:22 PM CST
Astronomical Twilight 5:38 AM CST 6:52 PM CST
Moon 6:15 PM CST (1/27) 7:02 AM CST (1/27)
Length of Visible Light 11h 11m
Length of Day
10h 16m
Full, 100% of the Moon is Illuminated
Jan 27
Full
Feb 3
Last Quarter
Feb 10
New
Feb 17
First Quarter
Feb 25
Full

Hourly Weather History & Observations

Time (CST) Temp. Windchill Dew Point Humidity Pressure Visibility Wind Dir Wind Speed Gust Speed Precip Events Conditions
12:15 AM 35.6 °F 29.9 °F 28.4 °F 75% 30.28 in 10.0 mi NE 6.9 mph - N/A   Mostly Cloudy
12:35 AM 35.6 °F 31.7 °F 28.4 °F 75% 30.29 in 10.0 mi NNE 4.6 mph - N/A   Mostly Cloudy
12:55 AM 35.6 °F 30.7 °F 28.4 °F 75% 30.28 in 10.0 mi NE 5.8 mph - N/A   Overcast
1:15 AM 35.6 °F 30.7 °F 30.2 °F 81% 30.29 in 10.0 mi NE 5.8 mph - N/A   Overcast
1:35 AM 35.6 °F 30.7 °F 32.0 °F 87% 30.29 in 9.0 mi NNE 5.8 mph - N/A   Overcast
1:55 AM 37.4 °F 30.8 °F 30.2 °F 75% 30.27 in 10.0 mi ENE 9.2 mph - N/A   Overcast
2:15 AM 37.4 °F 30.8 °F 28.4 °F 70% 30.27 in 10.0 mi ENE 9.2 mph - N/A   Overcast
2:35 AM 37.4 °F 31.4 °F 28.4 °F 70% 30.27 in 10.0 mi ENE 8.1 mph - N/A   Overcast
2:55 AM 37.4 °F 31.4 °F 28.4 °F 70% 30.27 in 10.0 mi ENE 8.1 mph - N/A   Overcast
3:15 AM 37.4 °F 31.4 °F 28.4 °F 70% 30.26 in 10.0 mi ENE 8.1 mph - N/A   Overcast
3:35 AM 37.4 °F 32.8 °F 30.2 °F 75% 30.25 in 10.0 mi NE 5.8 mph - N/A   Overcast
3:55 AM 37.4 °F 31.4 °F 30.2 °F 75% 30.26 in 10.0 mi NE 8.1 mph - N/A   Overcast
4:15 AM 37.4 °F 31.4 °F 30.2 °F 75% 30.25 in 10.0 mi NE 8.1 mph - N/A   Overcast
4:35 AM 37.4 °F 31.4 °F 30.2 °F 75% 30.25 in 10.0 mi ENE 8.1 mph - N/A   Overcast
4:55 AM 37.4 °F 33.8 °F 32.0 °F 81% 30.25 in 10.0 mi NE 4.6 mph - N/A   Overcast
5:15 AM 37.4 °F 31.4 °F 32.0 °F 81% 30.25 in 10.0 mi NE 8.1 mph - N/A   Overcast
5:35 AM 37.4 °F 32.8 °F 32.0 °F 81% 30.25 in 10.0 mi ENE 5.8 mph - N/A   Overcast
5:55 AM 37.4 °F 32.1 °F 32.0 °F 81% 30.25 in 10.0 mi NE 6.9 mph - N/A   Overcast
6:15 AM 37.4 °F 32.8 °F 32.0 °F 81% 30.25 in 9.0 mi NE 5.8 mph - N/A   Overcast
6:55 AM 37.4 °F 32.8 °F 32.0 °F 81% 30.25 in 8.0 mi ENE 5.8 mph - N/A   Overcast
7:15 AM 37.4 °F 32.1 °F 32.0 °F 81% 30.25 in 8.0 mi ENE 6.9 mph - N/A   Overcast
7:35 AM 37.4 °F 31.4 °F 32.0 °F 81% 30.25 in 7.0 mi East 8.1 mph - N/A Rain Light Rain
7:55 AM 37.4 °F 32.8 °F 33.8 °F 87% 30.25 in 4.0 mi East 5.8 mph - 0.01 in Rain Light Rain
8:15 AM 39.2 °F 35.9 °F 35.6 °F 87% 30.25 in 5.0 mi ESE 4.6 mph - N/A Rain Light Rain
8:35 AM 39.2 °F 35.0 °F 35.6 °F 87% 30.24 in 5.0 mi East 5.8 mph - N/A Rain Light Rain
8:55 AM 39.2 °F - 35.6 °F 87% 30.25 in 7.0 mi Calm Calm - N/A   Overcast
9:15 AM 39.2 °F - 35.6 °F 87% 30.25 in 8.0 mi Calm Calm - N/A   Overcast
9:35 AM 39.2 °F 35.9 °F 35.6 °F 87% 30.25 in 7.0 mi NE 4.6 mph - N/A   Overcast
9:55 AM 41.0 °F 37.1 °F 37.4 °F 87% 30.25 in 5.0 mi NE 5.8 mph - N/A   Overcast
10:15 AM 41.0 °F 39.0 °F 39.2 °F 93% 30.25 in 3.0 mi NE 3.5 mph - N/A   Overcast
10:35 AM 41.0 °F 38.0 °F 39.2 °F 93% 30.25 in 4.0 mi ENE 4.6 mph - N/A Rain Light Rain
10:55 AM 41.0 °F 39.0 °F 39.2 °F 93% 30.24 in 3.0 mi ESE 3.5 mph - N/A Rain Light Rain
11:15 AM 42.8 °F 38.6 °F 39.2 °F 87% 30.22 in 4.0 mi ESE 6.9 mph - N/A Rain Light Rain
11:35 AM 44.6 °F 40.2 °F 41.0 °F 87% 30.20 in 5.0 mi ESE 8.1 mph - 0.01 in Rain Light Rain
11:55 AM 46.4 °F 43.5 °F 41.0 °F 81% 30.19 in 9.0 mi SE 5.8 mph - 0.01 in   Overcast
12:15 PM 46.4 °F 42.9 °F 41.0 °F 81% 30.19 in 10.0 mi SSE 6.9 mph - N/A   Overcast
12:35 PM 48.2 °F - 41.0 °F 76% 30.18 in 10.0 mi SSE 4.6 mph - N/A   Overcast
12:55 PM 48.2 °F - 42.8 °F 82% 30.17 in 8.0 mi Calm Calm - N/A Rain Light Rain
1:15 PM 50.0 °F - 44.6 °F 82% 30.16 in 9.0 mi South 9.2 mph - N/A   Overcast
1:35 PM 50.0 °F - 44.6 °F 82% 30.14 in 7.0 mi South 9.2 mph - N/A Rain Light Rain
1:55 PM 50.0 °F - 44.6 °F 82% 30.13 in 10.0 mi South 9.2 mph - N/A   Overcast
2:15 PM 50.0 °F - 46.4 °F 87% 30.13 in 10.0 mi South 6.9 mph - N/A   Overcast
2:35 PM 51.8 °F - 46.4 °F 82% 30.13 in 10.0 mi South 4.6 mph - N/A   Overcast
2:55 PM 51.8 °F - 46.4 °F 82% 30.13 in 10.0 mi SE 3.5 mph - N/A   Overcast
3:15 PM 51.8 °F - 46.4 °F 82% 30.13 in 10.0 mi SE 3.5 mph - N/A   Overcast
3:35 PM 51.8 °F - 46.4 °F 82% 30.12 in 10.0 mi ESE 3.5 mph - N/A   Overcast
3:55 PM 51.8 °F - 46.4 °F 82% 30.11 in 10.0 mi East 3.5 mph - N/A   Mostly Cloudy
4:15 PM 53.6 °F - 48.2 °F 82% 30.11 in 10.0 mi ESE 3.5 mph - N/A   Mostly Cloudy
4:35 PM 51.8 °F - 48.2 °F 88% 30.10 in 10.0 mi East 5.8 mph - N/A   Partly Cloudy
4:55 PM 50.0 °F - 48.2 °F 94% 30.10 in 9.0 mi East 5.8 mph - N/A   Clear
5:15 PM 50.0 °F - 48.2 °F 94% 30.10 in 9.0 mi ESE 3.5 mph - N/A   Clear
5:35 PM 50.0 °F - 46.4 °F 87% 30.10 in 10.0 mi East 4.6 mph - N/A   Scattered Clouds
5:55 PM 48.2 °F - 46.4 °F 93% 30.09 in 9.0 mi ESE 6.9 mph - N/A   Mostly Cloudy
6:15 PM 48.2 °F - 46.4 °F 93% 30.08 in 8.0 mi SE 9.2 mph - N/A   Scattered Clouds
6:35 PM 50.0 °F - 48.2 °F 94% 30.08 in 9.0 mi SE 10.4 mph - N/A   Clear
6:55 PM 53.6 °F - 51.8 °F 94% 30.08 in 10.0 mi SSE 12.7 mph - N/A   Clear
7:15 PM 55.4 °F - 53.6 °F 94% 30.07 in 10.0 mi SSE 15.0 mph - N/A   Clear
7:35 PM 55.4 °F - 53.6 °F 94% 30.07 in 10.0 mi SSE 15.0 mph - N/A   Clear
7:55 PM 55.4 °F - 53.6 °F 94% 30.06 in 10.0 mi SSE 12.7 mph - N/A   Clear
8:15 PM 55.4 °F - 53.6 °F 94% 30.08 in 10.0 mi South 11.5 mph - N/A   Clear
8:35 PM 55.4 °F - 53.6 °F 94% 30.07 in 10.0 mi South 11.5 mph - N/A   Clear
8:55 PM 55.4 °F - 53.6 °F 94% 30.07 in 10.0 mi South 10.4 mph - N/A   Clear
9:15 PM 57.2 °F - 53.6 °F 88% 30.07 in 10.0 mi South 11.5 mph - N/A   Clear
9:55 PM 53.6 °F - 51.8 °F 94% 30.07 in 8.0 mi SE 3.5 mph - N/A   Overcast
10:35 PM 53.6 °F - 53.6 °F 100% 30.07 in 9.0 mi SSE 8.1 mph - N/A   Overcast
10:55 PM 55.4 °F - 53.6 °F 94% 30.07 in 10.0 mi SSE 10.4 mph - N/A   Overcast
11:15 PM 55.4 °F - 53.6 °F 94% 30.07 in 10.0 mi South 9.2 mph - N/A   Overcast
11:35 PM 55.4 °F - 53.6 °F 94% 30.07 in 10.0 mi SSE 10.4 mph - N/A   Overcast
11:55 PM 57.2 °F - 53.6 °F 88% 30.07 in 10.0 mi South 15.0 mph - N/A   Overcast